Showing default

COSMOS 252, 3530

Orbit data source: Space-Track

COSMOS 252, 3530 is a payload satellite owned by PKO (CIS) in LEO that was launched on Fri, 01 Nov 1968 UTC via a TSIKLON-2A launch vehicle from the Tyuratam Missile And Space Complex (TTMTR). Payload-class satellites include a variety of spacecraft equipped with specific instruments for various scientific and technological missions. These include communications satellites like Starlink; space stations such as the ISS; scientific satellites like the Hubble; Earth observation satellites from companies like Planet Labs, Umbra, and HawkEye 360; GPS; miniature CubeSats for education and research; and military/defense satellites.

Loading next visibility...
Identifier
3530, 1968-097A
Orbit
LEO
Last TLE update
19 hours ago
Origin
Manufacturer
TSKBM/KB1
Mission
Defense Weapon
Bus & Motor
IS, Unknown motor
Mass
1,400 kg wet, ~1,400 kg dry
Launch date (UTC)
1968-11-01 (57 years ago)
Launch vehicle
TSIKLON-2A
Launch site
Tyuratam Missile And Space Complex (TTMTR)
Object type
Payload
Rocket body
Debris
Shape & HBR
Cyl, 4 m
Radar Cross Section
7.854 m², Large (>1 m²)

Expand to show TLE details & history

TLE from 19 hours ago
0 COSMOS 252
1 03530U 68097A   25128.55054229  .00000181  00000-0  11889-3 0  9991
2 03530  62.3289  66.2665 0982195 332.3289  22.8541 12.88133179653827
Epoch: 2025-05-08T13:12Z
Definitive object data (Epoch: 2025-05-08T13:12:46.853Z)
Latitude
-0.00008°
Longitude
1.45181°
Altitude
627.72 km
Speed
7.873 km/s
True Right ascension
04h 25m 03s
True Declination
0° 00' 00"
Sunlit
Object was in daylight at TLE epoch
Visualization TLE readout
Latitude
50.11211°
Longitude
38.14467°
Altitude
1,207.552 km
Speed
7.306 km/s
Apparent Right ascension
05h 33m 52s
Apparent Declination
10° 36' 44"
Sunlit
Object is in daylight
Visualization observer readout
Local Sidereal Time
16:16:21
Azimuth
336.103° NNW
Elevation
-36.368°
Doppler factor
1
Orbital elements
Apogee altitude
2,062.841 km
Perigee altitude
553 km
Semi-major axis
7,686.058 km
Eccentricity
0.0982195
Inclination
62.3289°
RAAN
66.2665°
Arg. of periapsis
332.3289°
True anomaly
27.77366°
Mean anomaly
22.8541°
Eccentric anomaly
25.25509°
Mean motion
3.22098 °/min
BSTAR
0.00011889
Orbital period
111.77 mins
Loading maneuver chart data...
Loading SW <> Apogee altitude chart data...

COSMOS 252 Visibility forecast

Observer location: undefined°, undefined°

Span
Click to sort rows by Start time (UTC) header in descending order
Start Az.
Max El. time (UTC)
Max El. Az.
Max El.
End time (UTC)
End Az.
16 mins2025-05-09 08:28:14.439Z300.163° NW2025-05-09 08:36:14.439Z255.99° W21.897°2025-05-09 08:44:14.439Z212.267° SW
10 mins2025-05-09 21:01:14.439Z179.415° S2025-05-09 21:04:14.439Z128.786° SE36.671°2025-05-09 21:11:14.439Z44.802° NE
12 mins2025-05-09 22:56:14.439Z264.813° W2025-05-09 23:01:14.439Z332.335° NNW30.525°2025-05-09 23:08:14.439Z27.193° NE
9 mins2025-05-10 00:56:14.439Z324.097° NNW2025-05-10 01:00:14.439Z356.73° N17.353°2025-05-10 01:05:14.439Z28.724° NE
14 mins2025-05-10 02:54:14.439Z340.801° N2025-05-10 03:00:14.439Z23.897° NE21.189°2025-05-10 03:08:14.439Z68.323° E
20 mins2025-05-10 04:50:14.439Z334.723° NNW2025-05-10 04:58:14.439Z37.741° NE37.694°2025-05-10 05:10:14.439Z117.353° SE
21 mins2025-05-10 06:46:14.439Z316.272° NNW2025-05-10 06:55:14.439Z246.217° WSW41.53°2025-05-10 07:07:14.439Z166.489° S
|